This is the latest recevied weather packets stored in our database for station/object WA0LM. If no packets are shown the sender has not sent any weather packets the latest 1 day(s).
| Time | Temp. | Humidity | Pressure | Rain* | Wind** | Luminosity | Snow |
|---|---|---|---|---|---|---|---|
| 1778033071 | 3.89° C | 60% | 1011.8 hPa | 0 mm | - | 0 W/m² | - |
| 1778032768 | 3.89° C | 60% | 1011.8 hPa | 0 mm | - | 0 W/m² | - |
| 1778032465 | 3.89° C | 58% | 1011.7 hPa | 0 mm | - | 0 W/m² | - |
| 1778032162 | 3.89° C | 59% | 1011.4 hPa | 0 mm | - | 0 W/m² | - |
| 1778031859 | 3.89° C | 59% | 1011.5 hPa | 0 mm | - | 0 W/m² | - |
| 1778031254 | 4.44° C | 61% | 1011.1 hPa | 0 mm | - | 3 W/m² | - |
| 1778030949 | 4.44° C | 60% | 1011.1 hPa | 0 mm | - | 4 W/m² | - |
| 1778030646 | 4.44° C | 58% | 1011.2 hPa | 0 mm | - | 5 W/m² | - |
| 1778029737 | 5° C | 58% | 1011 hPa | 0 mm | - | 14 W/m² | - |
| 1778029436 | 5° C | 60% | 1011.1 hPa | 0 mm | - | 17 W/m² | - |
| 1778029132 | 5° C | 59% | 1011 hPa | 0 mm | - | 20 W/m² | - |
| 1778028829 | 5° C | 58% | 1010.9 hPa | 0 mm | - | 23 W/m² | - |
| 1778028525 | 5° C | 56% | 1010.7 hPa | 0 mm | - | 26 W/m² | - |
| 1778028223 | 5.56° C | 57% | 1010.6 hPa | 0 mm | - | 30 W/m² | - |
| 1778027919 | 5.56° C | 54% | 1010.7 hPa | 0 mm | - | 31 W/m² | - |
| 1778027615 | 5.56° C | 57% | 1010.7 hPa | 0 mm | - | 47 W/m² | - |
| 1778026704 | 6.11° C | 55% | 1010.6 hPa | 0 mm | - | 75 W/m² | - |
| 1778024887 | 5.56° C | 56% | 1010.4 hPa | 0 mm | - | 155 W/m² | - |
| 1778023676 | 5.56° C | 57% | 1010.4 hPa | 0 mm | - | 251 W/m² | - |
| 1778022769 | 5.56° C | 56% | 1010.4 hPa | 0 mm | - | 257 W/m² | - |
| 1778022163 | 5.56° C | 56% | 1010.3 hPa | 0 mm | - | 264 W/m² | - |
* Rain latest hour (hover to see other rain measurements)
** Current wind speed in m/s (hover to see current wind gust speed)